Stations météo

réclame
Mon MeteoGroup
Voorschoten AWS, Pays-Bas (6215): Température de l'air & dewpoint: 16.09.2018 15:00:00 - 22.09.2018 15:00:00 (CEST)Voorschoten AWS, Pays-Bas (6215): Température de l'air 5cm: 16.09.2018 15:00:00 - 22.09.2018 15:00:00 (CEST)Voorschoten AWS, Pays-Bas (6215): Vitesse du vent & gusts: 16.09.2018 15:00:00 - 22.09.2018 15:00:00 (CEST)Voorschoten AWS, Pays-Bas (6215): Direction du vent: 16.09.2018 15:00:00 - 22.09.2018 15:00:00 (CEST)Voorschoten AWS, Pays-Bas (6215): reduced air pressure: 16.09.2018 15:00:00 - 22.09.2018 15:00:00 (CEST)Voorschoten AWS, Pays-Bas (6215): visibility: 16.09.2018 15:00:00 - 22.09.2018 15:00:00 (CEST)Voorschoten AWS, Pays-Bas (6215): Quantités de précipitations: 16.09.2018 15:00:00 - 22.09.2018 15:00:00 (CEST)
Date & Time tt [°C] td [°C] tt 5cm [°C] ff [km/h] ff [knt] fx [km/h] fx [knt] dd ppp [hPa] vv [km] rr [mm]
22.09.2018 15:00:00 12,3 10,9 12,2 14 8 32 18 SSW 1018,6 39 1,4
22.09.2018 14:00:00 12,4 10,5 12,4 22 12 40 21 SW 1018,5 7 1,1
22.09.2018 13:00:00 15,3 9,0 15,6 22 12 36 19 W 1018,0 30 0,0
22.09.2018 12:00:00 15,6 9,5 15,9 22 12 40 21 WSW 1018,3 31 0,0
22.09.2018 11:00:00 15,1 9,4 15,0 25 14 40 21 WSW 1018,4 32 0,0
22.09.2018 10:00:00 14,6 9,4 14,2 22 12 36 19 W 1018,2 26 0,0
22.09.2018 09:00:00 14,4 8,6 13,6 22 12 32 18 WSW 1018,1 32 0,0
22.09.2018 08:00:00 13,7 7,6 12,4 18 10 32 18 W 1017,8 31 0,0
22.09.2018 07:00:00 13,7 7,1 12,7 22 12 36 19 W 1017,8 33 0,0
22.09.2018 06:00:00 13,7 7,6 12,7 22 12 36 19 W 1017,4 34 0,0
22.09.2018 05:00:00 13,6 7,6 12,8 25 14 43 23 W 1017,2 28 0,0
22.09.2018 04:00:00 13,7 7,2 12,8 29 16 47 25 W 1017,0 32 0,0
22.09.2018 03:00:00 13,8 7,7 12,9 36 19 54 29 W 1016,5 30 0,0
22.09.2018 02:00:00 13,8 8,2 13,1 36 19 54 29 W 1015,9 25 0,0
22.09.2018 01:00:00 13,1 8,8 11,9 32 18 61 33 W 1015,2 16 0,4
22.09.2018 00:00:00 14,2 8,1 13,5 40 21 68 37 W 1014,1 25 0,0
21.09.2018 23:00:00 14,3 7,5 13,1 47 25 68 37 W 1012,9 28 0,1
21.09.2018 22:00:00 14,7 7,9 12,8 47 25 79 43 W 1011,6 24 0,1
21.09.2018 21:00:00 15,2 7,5 13,9 43 23 76 41 W 1010,8 29 0,0
21.09.2018 20:00:00 14,7 8,0 12,5 40 21 72 39 W 1009,8 21 0,2
21.09.2018 19:00:00 14,0 8,6 12,3 40 21 83 45 WSW 1009,0 23 1,5
21.09.2018 18:00:00 11,4 7,3 12,2 61 33 86 47 W 1009,8 12 0,5
21.09.2018 17:00:00 14,9 6,0 14,6 32 18 61 33 WSW 1009,2 32 0,0
21.09.2018 16:00:00 15,3 6,6 14,7 40 21 68 37 WSW 1009,1 25 0,0
21.09.2018 15:00:00 15,2 6,5 14,6 40 21 58 31 WSW 1008,5 29 0,0
21.09.2018 14:00:00 15,0 7,3 14,6 40 21 61 33 W 1007,9 31 0,0
21.09.2018 13:00:00 14,6 8,0 14,5 36 19 61 33 W 1006,7 24 0,0
21.09.2018 12:00:00 14,4 8,9 14,3 36 19 65 35 W 1005,7 26 0,0
21.09.2018 11:00:00 14,7 9,7 14,0 29 16 58 31 W 1004,4 27 0,0
21.09.2018 10:00:00 15,8 8,8 15,5 43 23 65 35 W 1002,7 26 0,0
21.09.2018 09:00:00 15,6 11,1 14,6 40 21 65 35 W 1001,6 16 0,3
21.09.2018 08:00:00 16,0 14,3 15,9 47 25 76 41 WSW 1000,3 5 0,9
21.09.2018 07:00:00 16,8 15,1 16,4 40 21 58 31 SSW 999,2 4,6 1,2
21.09.2018 06:00:00 18,9 13,8 18,5 40 21 61 33 SSW 999,5 27 0,0
21.09.2018 05:00:00 19,5 13,5 18,9 36 19 58 31 S 999,6 42 0,0
21.09.2018 04:00:00 19,5 13,9 18,9 29 16 54 29 SSW 1001,4 33 0,0
21.09.2018 03:00:00 19,9 14,1 19,0 29 16 40 21 SSW 1003,1 44 0,0
21.09.2018 02:00:00 19,6 14,2 18,9 22 12 36 19 SSW 1004,5 35 0,0
21.09.2018 01:00:00 20,5 13,9 19,5 25 14 47 25 SSW 1005,3 40 0,0
21.09.2018 00:00:00 20,6 13,9 19,8 25 14 43 23 S 1006,2 33 0,0
20.09.2018 23:00:00 20,8 14,0 19,5 22 12 36 19 S 1007,1 29 0,0
20.09.2018 22:00:00 19,3 14,6 17,6 14 8 22 12 S 1008,3 26 0,0
20.09.2018 21:00:00 17,1 15,7 15,0 11 6 11 6 SE 1009,3 18 0,0
20.09.2018 20:00:00 16,3 15,2 15,4 4 2 14 8 W 1010,3 14 0,0
20.09.2018 19:00:00 19,0 16,0 18,6 11 6 29 16 WSW 1011,4 18 0,0
20.09.2018 18:00:00 21,5 15,1 21,2 18 10 43 23 SSW 1011,7 29 0,0
20.09.2018 17:00:00 21,5 14,8 21,7 22 12 40 21 SSW 1012,2 22 0,0
20.09.2018 16:00:00 21,7 15,0 23,1 25 14 36 19 SSW 1013,0 23 0,0
20.09.2018 15:00:00 20,4 15,2 20,5 25 14 40 21 SW 1013,9 25 0,0
20.09.2018 14:00:00 20,9 14,9 21,4 25 14 43 23 SW 1014,4 22 0,0
20.09.2018 13:00:00 20,0 15,2 20,8 25 14 43 23 SW 1014,6 22 0,0
20.09.2018 12:00:00 19,5 15,2 20,3 25 14 43 23 SW 1014,9 18 0,0
20.09.2018 11:00:00 19,0 15,0 19,4 29 16 - - SW 1015,0 21 -
20.09.2018 10:00:00 18,6 15,3 18,9 25 14 36 19 SSW 1015,0 18 0,0
20.09.2018 09:00:00 18,1 15,7 18,0 18 10 32 18 SSW 1015,1 17 0,0
20.09.2018 08:00:00 16,9 15,1 15,8 14 8 22 12 SSW 1015,0 17 0,0
20.09.2018 07:00:00 17,5 15,0 16,8 14 8 25 14 SSW 1015,2 19 0,0
20.09.2018 06:00:00 17,1 14,9 16,3 14 8 22 12 SW 1015,3 17 0,0
20.09.2018 05:00:00 17,0 14,6 16,1 18 10 25 14 SSW 1015,3 19 0,0
20.09.2018 04:00:00 17,3 14,7 16,3 18 10 29 16 SSW 1015,4 20 0,0
20.09.2018 03:00:00 17,7 14,8 16,7 22 12 32 18 SSW 1015,4 22 0,0
20.09.2018 02:00:00 18,1 15,0 17,3 22 12 36 19 SSW 1015,7 21 0,0
20.09.2018 01:00:00 18,6 15,0 17,8 25 14 43 23 SW 1015,9 19 0,0
20.09.2018 00:00:00 18,9 15,0 18,1 22 12 58 31 SW 1016,2 20 0,0
19.09.2018 23:00:00 19,4 15,1 18,3 25 14 47 25 SW 1016,3 20 0,0
19.09.2018 22:00:00 19,8 15,1 18,7 25 14 47 25 SW 1016,4 20 0,0
19.09.2018 21:00:00 19,8 14,4 18,8 22 12 40 21 SW 1016,0 28 0,0
19.09.2018 20:00:00 20,0 14,2 18,9 25 14 50 27 SW 1015,6 31 0,0
19.09.2018 19:00:00 20,7 14,7 20,2 36 19 61 33 SW 1015,3 26 0,0
19.09.2018 18:00:00 21,2 14,7 21,0 29 16 54 29 SW 1015,2 24 0,0
19.09.2018 17:00:00 22,2 14,7 22,5 36 19 61 33 SW 1014,9 22 0,0
19.09.2018 16:00:00 21,5 14,3 21,7 32 18 54 29 SW 1015,0 27 0,0
19.09.2018 15:00:00 21,6 14,7 22,5 29 16 54 29 SW 1015,0 24 0,0
19.09.2018 14:00:00 21,2 13,7 22,8 36 19 50 27 SW 1015,1 20 0,0
19.09.2018 13:00:00 21,2 15,2 22,3 32 18 43 23 SSW 1015,1 25 0,0
19.09.2018 12:00:00 20,4 15,3 22,4 25 14 36 19 SW 1015,5 19 0,0
19.09.2018 11:00:00 19,1 15,7 20,0 18 10 29 16 SSW 1015,1 14 0,0
19.09.2018 10:00:00 17,9 15,4 18,5 18 10 25 14 SSW 1014,9 13 0,0
19.09.2018 09:00:00 16,5 14,6 15,7 11 6 18 10 SSW 1014,8 14 0,0
19.09.2018 08:00:00 15,4 13,7 13,9 14 8 18 10 SSE 1014,1 15 0,0
19.09.2018 07:00:00 14,1 12,9 13,0 7 4 18 10 SSW 1014,7 14 0,0
19.09.2018 06:00:00 14,7 13,6 13,7 7 4 11 6 SSE 1015,1 19 0,0
19.09.2018 05:00:00 14,6 13,5 13,7 11 6 14 8 SSE 1015,3 20 0,0
19.09.2018 04:00:00 14,7 13,6 13,7 11 6 18 10 S 1015,6 20 0,0
19.09.2018 03:00:00 15,6 13,9 14,6 14 8 18 10 S 1015,3 25 0,0
19.09.2018 02:00:00 16,5 13,3 15,6 11 6 29 16 SW 1014,9 30 0,0
19.09.2018 01:00:00 17,8 13,8 16,5 18 10 32 18 WSW 1014,9 36 0,0
19.09.2018 00:00:00 17,9 14,2 16,6 22 12 32 18 WSW 1014,6 25 0,0
18.09.2018 23:00:00 17,7 14,4 16,9 18 10 43 23 SW 1014,5 20 0,0
18.09.2018 22:00:00 17,9 14,8 17,1 18 10 36 19 SW 1014,5 16 0,0
18.09.2018 21:00:00 18,2 14,7 17,3 25 14 50 27 WSW 1014,3 15 0,0
18.09.2018 20:00:00 18,5 14,5 17,7 25 14 43 23 WSW 1013,8 13 0,0
18.09.2018 19:00:00 18,7 14,6 18,1 25 14 47 25 WSW 1013,1 13 0,0
18.09.2018 18:00:00 20,1 14,0 20,3 25 14 50 27 WSW 1012,8 14 0,0
18.09.2018 17:00:00 20,8 14,6 21,6 40 21 65 35 SW 1012,2 15 0,0
18.09.2018 16:00:00 21,6 15,3 22,6 40 21 54 29 SW 1011,6 15 0,0
18.09.2018 15:00:00 22,3 15,3 24,3 32 18 54 29 SW 1011,2 20 0,0
18.09.2018 14:00:00 22,4 14,9 23,6 43 23 61 33 SW 1011,0 24 0,0
18.09.2018 13:00:00 20,9 15,5 21,7 29 16 61 33 SW 1010,9 23 0,0
18.09.2018 12:00:00 21,1 15,0 22,5 32 18 54 29 WSW 1010,6 28 0,0
18.09.2018 11:00:00 20,8 15,0 22,1 29 16 40 21 SW 1010,0 28 0,0
18.09.2018 10:00:00 19,9 13,8 20,2 22 12 36 19 SW 1009,6 28 0,0
18.09.2018 09:00:00 18,0 12,5 16,9 14 8 22 12 SSW 1009,4 33 0,0
18.09.2018 08:00:00 13,9 10,7 10,6 7 4 11 6 S 1009,1 32 0,0
18.09.2018 07:00:00 13,7 10,2 10,6 7 4 14 8 SSE 1008,9 24 0,0
18.09.2018 06:00:00 13,2 9,7 10,0 11 6 14 8 SSE 1009,3 36 0,0
18.09.2018 05:00:00 12,6 9,3 8,4 7 4 11 6 SE 1009,7 37 0,0
18.09.2018 04:00:00 13,0 9,5 8,2 7 4 11 6 SE 1010,4 34 0,0
18.09.2018 03:00:00 13,3 9,7 9,6 11 6 14 8 SE 1011,0 37 0,0
18.09.2018 02:00:00 13,9 9,8 9,1 11 6 - - SE 1011,6 36 -
18.09.2018 01:00:00 14,6 10,1 11,0 11 6 14 8 SE 1012,2 36 0,0
18.09.2018 00:00:00 14,7 10,7 9,7 11 6 14 8 SE 1012,8 33 0,0
17.09.2018 23:00:00 15,2 10,7 9,0 11 6 11 6 SE 1013,3 31 0,0
17.09.2018 22:00:00 13,8 11,8 8,9 11 6 11 6 SE 1013,8 36 0,0
17.09.2018 21:00:00 14,0 12,8 10,6 4 2 7 4 SE 1014,3 33 0,0
17.09.2018 20:00:00 17,7 12,0 14,5 7 4 14 8 SE 1014,5 44 0,0
17.09.2018 19:00:00 21,5 12,2 20,1 11 6 22 12 S 1014,9 33 0,0
17.09.2018 18:00:00 22,7 11,3 22,7 14 8 25 14 S 1015,4 33 0,0
17.09.2018 17:00:00 23,0 11,4 24,0 14 8 29 16 S 1016,0 28 0,0
17.09.2018 16:00:00 23,1 11,8 25,3 14 8 25 14 SSW 1016,6 43 0,0
17.09.2018 15:00:00 22,4 12,8 24,9 22 12 29 16 S 1017,3 35 0,0
17.09.2018 14:00:00 21,7 13,5 24,6 18 10 29 16 SSW 1017,9 36 0,0
17.09.2018 13:00:00 20,6 15,6 23,2 18 10 25 14 SSW 1018,4 22 0,0
17.09.2018 12:00:00 19,7 15,3 21,8 11 6 25 14 S 1018,6 20 0,0
17.09.2018 11:00:00 18,3 15,7 18,9 14 8 18 10 SSW 1018,8 17 0,0
17.09.2018 10:00:00 16,9 14,7 16,8 11 6 14 8 SSW 1018,9 15 0,0
17.09.2018 09:00:00 15,4 13,5 14,6 7 4 11 6 S 1018,7 20 0,0
17.09.2018 08:00:00 13,0 11,6 11,7 7 4 11 6 S 1018,4 19 0,0
17.09.2018 07:00:00 12,5 11,3 10,0 11 6 11 6 S 1018,2 26 0,0
17.09.2018 06:00:00 12,2 11,0 9,9 7 4 11 6 S 1018,2 35 0,0
17.09.2018 05:00:00 11,6 10,6 8,0 7 4 11 6 S 1018,0 33 0,0
17.09.2018 04:00:00 11,0 10,0 8,9 7 4 11 6 SSW 1018,2 36 0,0
17.09.2018 03:00:00 11,6 10,9 9,4 11 6 14 8 S 1017,9 32 0,0
17.09.2018 02:00:00 11,0 10,7 8,2 7 4 11 6 S 1018,5 33 0,0
17.09.2018 01:00:00 10,8 10,8 8,6 7 4 7 4 S 1018,9 9 0,0
17.09.2018 00:00:00 11,3 11,3 7,4 4 2 11 6 S 1019,1 23 0,0
16.09.2018 23:00:00 10,6 10,6 7,3 4 2 7 4 SSW 1019,4 0,4 0,0
16.09.2018 22:00:00 11,4 11,3 8,0 4 2 7 4 SSE 1019,4 14 0,0
16.09.2018 21:00:00 13,1 11,6 10,1 4 2 11 6 S 1019,1 36 0,0
16.09.2018 20:00:00 16,2 12,4 14,2 7 4 14 8 SSW 1019,0 43 0,0
16.09.2018 19:00:00 19,2 13,7 18,7 11 6 25 14 W 1019,2 37 0,0
16.09.2018 18:00:00 20,3 11,5 20,1 18 10 32 18 SSW 1018,7 36 0,0
16.09.2018 17:00:00 20,6 11,9 21,3 18 10 32 18 SSW 1019,0 27 0,0
16.09.2018 16:00:00 21,2 11,5 22,7 22 12 36 19 SSW 1019,5 38 0,0
16.09.2018 15:00:00 21,4 12,6 20,8 18 10 36 19 SW 1019,8 32 0,0

tt = Température de l'air
td = dewpoint
tt 5cm = Température de l'air 5cm
ff = Vitesse du vent
fx = gusts
dd = Direction du vent
ppp = reduced air pressure
vv = visibility
rr = Quantités de précipitations

stations d'obs. à proximité